Location: Wavehorne
(51.0500°N, 0.8333°E)
Time: 17:21:54
(UTC+00:00)

Cosmos 1932 - Pass Details

Date: 20 June 2021
Orbit: 942 x 988 km, 65.0° (Epoch: 03 August)

Event Time Altitude Azimuth Distance (km) Brightness Sun altitude
Rises 00:44:41 0° 318° (NW) 3,631 8.0 -14.8°
Reaches altitude 10° 00:47:15 10° 317° (NW) 2,678 7.3 -14.7°
Maximum altitude 00:53:28 74° 234° (SW) 982 4.4 -14.5°
Drops below altitude 10° 00:59:39 10° 150° (SSE) 2,653 6.4 -14.3°
Enters shadow 01:00:02 - 150° (SSE) 2,797 6.5 -14.3°
